This demonstration page uses our WeatherBlox Daily Observations layout. Learn more.

Left ArrowRight Arrow

Hourly Observations for September 30, 2017

Temp ( °F °C ) Dew Point ( °F °C ) Humidity (%) Winds ( mph kmh ) Pressure ( in mb ) Visibility ( mi km ) Precip ( " mm )
12:51 am 00:51 Clear 76 24.4 58 14.4 54 54 ESE 16 26 29.84 1010 10 16.0934 0 0
1:51 am 01:51 Clear 74 23.3 57 13.9 56 56 ESE 14 22 29.85 1011 10 16.0934 0 0
2:51 am 02:51 Clear 72 22.2 57 13.9 59 59 ESE 13 20 29.85 1011 10 16.0934 0 0
3:51 am 03:51 Clear 72 22.2 57 13.9 59 59 ESE 14 22 29.85 1011 10 16.0934 0 0
4:51 am 04:51 Mostly Cloudy 71 21.7 57 13.9 61 61 ESE 12 19 29.87 1012 10 16.0934 0 0
5:51 am 05:51 Cloudy 69 20.6 57 13.9 66 66 SSE 8 13 29.9 1013 10 16.0934 0 0
6:51 am 06:51 Cloudy 70 21.1 57 13.9 64 64 SSE 8 13 29.92 1013 10 16.0934 0 0
7:51 am 07:51 Mostly Sunny 72 22.2 58 14.4 61 61 SE 8 13 29.93 1014 10 16.0934 0 0
8:51 am 08:51 Mostly Cloudy 74 23.3 58 14.4 57 57 S 10 17 29.94 1014 10 16.0934 0 0
9:51 am 09:51 Mostly Sunny 77 25 58 14.4 52 52 SSE 10 17 29.94 1014 10 16.0934 0 0
10:51 am 10:51 Mostly Cloudy 80 26.7 57 13.9 45 45 SE 7 11 29.91 1013 10 16.0934 0 0
11:51 am 11:51 Sunny 84 28.9 56 13.3 38 38 SE 12 19 29.85 1011 10 16.0934 0 0
12:51 pm 12:51 Sunny 87 30.6 55 12.8 34 34 SSE 10 17 29.8 1009 10 16.0934 0 0
1:51 pm 13:51 Sunny 88 31.1 54 12.2 31 31 VRB 7 11 29.76 1008 10 16.0934 0 0
2:51 pm 14:51 Sunny 89 31.7 52 11.1 28 28 S 9 15 29.73 1007 10 16.0934 0 0
3:51 pm 15:51 Mostly Sunny 90 32.2 52 11.1 27 27 S 9 15 29.71 1006 10 16.0934 0 0
4:51 pm 16:51 Sunny 90 32.2 52 11.1 27 27 SSE 10 17 29.69 1005 10 16.0934 0 0
5:51 pm 17:51 Mostly Cloudy 87 30.6 52 11.1 30 30 SSE 5 7 29.69 1005 10 16.0934 0 0
6:51 pm 18:51 Clear 82 27.8 53 11.7 37 37 SW 5 7 29.71 1006 10 16.0934 0 0
7:51 pm 19:51 Clear 81 27.2 49 9.4 33 33 W 8 13 29.73 1007 10 16.0934 0 0
8:51 pm 20:51 Clear 76 24.4 51 10.6 42 42 WNW 8 13 29.75 1008 10 16.0934 0 0
9:51 pm 21:51 Clear 73 22.8 45 7.2 37 37 WNW 7 11 29.76 1008 10 16.0934 0 0
10:51 pm 22:51 Clear 70 21.1 41 5 35 35 N 7 11 29.77 1008 10 16.0934 0 0
11:51 pm 23:51 Clear 68 20 37 2.8 32 32 N 3 6 29.76 1008 10 16.0934 0 0

Powered by AerisWeather